Tracking 26951 objects as of 3-Feb-2023
HD Live streaming from Space Station
objects crossing your sky now

PALAPA 2

Track PALAPA 2 now!
PALAPA 2 is classified as:


NORAD ID: 9862
Int'l Code: 1977-018A
Perigee: 35,837.0 km
Apogee: 35,878.7 km
Inclination: 11.1 °
Period: 1,439.4 minutes
Semi major axis: 42228 km
RCS: 5.6864 m2 (large)
Launch date: March 10, 1977
Source: Indonesia (INDO)
Launch site: AIR FORCE EASTERN TEST RANGE (AFETR)
Your satellite tracking list
Your tracking list is empty




NASA's NSSDC Master Catalog

Two Line Element Set (TLE):
1  9862U 77018A   23033.23973934 -.00000272  00000-0  00000+0 0  9990
2  9862  11.0721 319.7055 0004942 101.7962 103.6406  1.00043566130777
Source of the keplerian elements: AFSPC